This demonstration page uses our WeatherBlox Daily Observations layout. Learn more.

38.88101, -77.10428

Hourly Observations for January 20, 2016

Temp ( °F °C ) Dew Point ( °F °C ) Humidity (%) Winds ( mph kmh ) Pressure ( in mb ) Visibility ( mi km ) Precip ( " mm )
12:52 am 00:52 Clear 21 -6 3 -16 45 45 NW 9 15 30.36 1028 10 16.09344 0 0
1:52 am 01:52 Clear 21 -6 3 -16 45 45 NW 15 24 30.36 1028 10 16.09344 0 0
2:52 am 02:52 Clear 21 -6 3 -16 45 45 NW 14 22 30.39 1029 10 16.09344 0 0
3:52 am 03:52 Clear 19 -7 5 -15 53 53 NNW 14 22 30.39 1029 10 16.09344 0 0
4:52 am 04:52 Clear 19 -7 5 -15 53 53 NNW 15 24 30.36 1028 10 16.09344 0 0
5:52 am 05:52 Clear 19 -7 5 -15 53 53 NNW 10 17 30.39 1029 10 16.09344 0 0
6:52 am 06:52 Mostly Cloudy 19 -7 5 -15 53 53 NNW 10 17 30.39 1029 10 16.09344 0 0
7:52 am 07:52 Mostly Cloudy 19 -7 5 -15 53 53 NW 9 15 30.39 1029 10 16.09344 0 0
8:52 am 08:52 Cloudy 21 -6 5 -15 49 49 NW 12 19 30.39 1029 10 16.09344 0 0
9:52 am 09:52 Cloudy 23 -5 7 -14 50 50 NW 8 13 30.39 1029 10 16.09344 0 0
10:52 am 10:52 Cloudy 27 -3 7 -14 43 43 NNW 6 9 30.36 1028 10 16.09344 0 0
11:52 am 11:52 Mostly Cloudy 28 -2 7 -14 40 40 NW 3 6 30.33 1027 10 16.09344 0 0
12:52 pm 12:52 Cloudy 28 -2 7 -14 40 40 W 7 11 30.27 1025 10 16.09344 0 0
1:52 pm 13:52 Cloudy 30 -1 7 -14 37 37 SSW 5 7 30.21 1023 10 16.09344 0 0
2:52 pm 14:52 Cloudy 30 -1 7 -14 37 37 SW 5 7 30.21 1023 10 16.09344 0 0
3:52 pm 15:52 Cloudy 28 -2 10 -12 47 47 S 8 13 30.18 1022 10 16.09344 0 0
4:52 pm 16:52 Cloudy 28 -2 10 -12 47 47 S 7 11 30.18 1022 10 16.09344 0 0
5:52 pm 17:52 Cloudy 30 -1 9 -13 40 40 SSW 8 13 30.18 1022 10 16.09344 0 0
5:54 pm 17:54 Cloudy with Light Snow 30 -1 9 -13 40 40 SW 8 13 30.18 1022 10 16.09344 0 0
6:06 pm 18:06 Cloudy with Light Snow 28 -2 16 -9 59 59 WSW 8 13 30.18 1022 3 4.828032 0 0
6:16 pm 18:16 Cloudy with Light Snow 28 -2 18 -8 64 64 SW 9 15 30.18 1022 4 6.437376 0 0
6:26 pm 18:26 Cloudy with Light Snow 27 -3 19 -7 74 74 WSW 12 19 30.18 1022 2.5 4.02336 0 0
6:34 pm 18:34 Cloudy with Light Snow 27 -3 19 -7 74 74 SW 7 11 30.18 1022 1.75 2.816352 0 0
6:41 pm 18:41 Cloudy with Light Snow 27 -3 19 -7 74 74 WSW 12 19 30.18 1022 2 3.218688 0.01 0.254
6:45 pm 18:45 Cloudy with Light Snow 27 -3 19 -7 74 74 SW 9 15 30.18 1022 1.75 2.816352 0.01 0.254
6:52 pm 18:52 Cloudy with Light Snow 27 -3 21 -6 80 80 SSW 9 15 30.18 1022 1.25 2.01168 0.01 0.254
7:03 pm 19:03 Cloudy with Light Snow 27 -3 21 -6 80 80 SSW 8 13 30.18 1022 2 3.218688 0 0
7:38 pm 19:38 Cloudy with Light Snow 27 -3 23 -5 86 86 S 6 9 30.18 1022 3 4.828032 0 0
7:41 pm 19:41 Cloudy with Light Snow 27 -3 23 -5 86 86 SSW 6 9 30.18 1022 3 4.828032 0.01 0.254
7:52 pm 19:52 Cloudy with Light Snow 27 -3 21 -6 80 80 SSW 7 11 30.18 1022 3 4.828032 0.01 0.254
8:52 pm 20:52 Cloudy with Light Snow 27 -3 23 -5 86 86 S 3 6 30.15 1021 3 4.828032 0.001 0.001
9:00 pm 21:00 Cloudy with Light Snow 27 -3 23 -5 86 86 Calm 30.15 1021 2.5 4.02336 0 0
9:16 pm 21:16 Cloudy with Light Snow 27 -3 23 -5 86 86 SSE 3 6 30.15 1021 3 4.828032 0 0
9:21 pm 21:21 Cloudy with Light Snow 27 -3 23 -5 86 86 S 5 7 30.15 1021 2.5 4.02336 0.01 0.254
9:45 pm 21:45 Cloudy with Light Snow 27 -3 23 -5 86 86 SE 6 9 30.15 1021 2.5 4.02336 0.01 0.254
9:47 pm 21:47 Cloudy with Light Snow 27 -3 23 -5 86 86 SE 6 9 30.15 1021 3 4.828032 0.01 0.254
9:52 pm 21:52 Cloudy with Light Snow 27 -3 23 -5 86 86 ESE 3 6 30.15 1021 4 6.437376 0.01 0.254
10:36 pm 22:36 Cloudy with Light Snow 27 -3 23 -5 86 86 Calm 30.15 1021 2.5 4.02336 0.001 0.001
10:52 pm 22:52 Cloudy with Light Snow 27 -3 23 -5 86 86 SSE 3 6 30.15 1021 3 4.828032 0.001 0.001
11:17 pm 23:17 Cloudy with Light Snow 27 -3 23 -5 86 86 Calm 30.15 1021 6 9.656064 0.001 0.001
11:52 pm 23:52 Cloudy with Light Snow 27 -3 23 -5 86 86 SSW 3 6 30.15 1021 6 9.656064 0.001 0.001

Powered by AerisWeather